GW3186 Weather Reports


time (UTC)temp
F
wind
direction
speed
knots
gust
knots
rain 1hr
in
rain 24hr
in
rain mn
in
humidity
%
barometer
mb
20260510081549 50 2 0.0 0.0 0.00 0.00 0.00 96 1012.4
20260510081045 51 2 0.0 0.0 0.00 0.00 0.00 96 1012.4
20260510080544 51 2 0.0 0.0 0.00 0.00 0.00 96 1012.4
20260510080042 51 2 0.0 0.0 0.00 0.00 0.00 96 1012.4
20260510075539 51 2 0.0 0.0 0.00 0.00 0.00 96 1012.4
20260510075036 52 2 0.0 0.0 0.00 0.00 0.00 96 1012.0
20260510074533 51 2 0.0 0.0 0.00 0.00 0.00 96 1012.4
20260510074028 51 2 0.0 0.0 0.00 0.00 0.00 96 1012.4
20260510073525 52 2 0.0 0.0 0.00 0.00 0.00 96 1012.4
20260510073022 52 2 0.0 0.0 0.00 0.00 0.00 96 1012.4
20260510072519 52 2 0.0 0.0 0.00 0.00 0.00 96 1012.4
20260510072014 52 2 0.0 0.0 0.00 0.00 0.00 96 1012.0
20260510071510 52 2 0.0 0.0 0.00 0.00 0.00 95 1012.4
20260510071009 52 2 0.0 0.0 0.00 0.00 0.00 96 1012.4
20260510070505 52 2 0.0 0.0 0.00 0.00 0.00 95 1012.4
20260510070002 52 3 0.0 0.0 0.00 0.00 0.00 95 1012.7
20260510065458 52 3 0.0 0.0 0.00 0.00 0.00 95 1012.4
20260510064954 53 3 0.0 0.0 0.00 0.00 0.00 94 1012.4
20260510064452 53 3 0.0 0.0 0.00 0.00 0.00 94 1012.0
20260510063948 53 3 0.0 0.0 0.00 0.00 0.00 94 1012.4
20260510063444 53 3 0.0 0.0 0.00 0.00 0.00 94 1012.4
20260510062942 53 3 0.0 0.0 0.00 0.00 0.00 93 1012.4
20260510062436 54 3 0.0 0.0 0.00 0.00 0.00 93 1012.4
20260510061932 54 3 0.0 0.0 0.00 0.00 0.00 93 1012.7
20260510061429 55 3 0.0 0.0 0.00 0.00 0.00 93 1012.4
20260510060925 55 3 0.0 0.0 0.00 0.00 0.00 92 1012.4
20260510060423 55 4 0.0 0.0 0.00 0.00 0.00 92 1012.4
20260510055919 55 4 0.0 0.0 0.00 0.00 0.00 92 1012.4
20260510055414 54 10 0.0 0.0 0.00 0.00 0.00 93 1012.0
20260510054912 54 9 0.0 0.0 0.00 0.00 0.00 93 1012.4
20260510054408 54 12 0.0 0.0 0.00 0.00 0.00 93 1012.4
20260510053902 54 358 0.0 0.0 0.00 0.00 0.00 93 1012.4
20260510053358 55 349 0.0 0.0 0.00 0.00 0.00 93 1012.4
20260510052855 55 341 0.0 0.0 0.00 0.00 0.00 92 1012.4
20260510052351 55 339 0.9 0.9 0.00 0.00 0.00 92 1012.4
20260510051847 55 35 0.0 0.0 0.00 0.00 0.00 92 1012.0
20260510051344 55 35 0.0 0.0 0.00 0.00 0.00 91 1012.0
20260510050841 55 35 0.0 0.0 0.00 0.00 0.00 92 1012.4
20260510050337 55 54 0.9 0.9 0.00 0.00 0.00 92 1012.4
20260510045834 55 347 0.0 0.0 0.00 0.00 0.00 92 1012.4
20260510045331 55 347 0.0 0.0 0.00 0.00 0.00 92 1012.0
20260510044828 56 347 0.0 0.0 0.00 0.00 0.00 91 1012.0
20260510044325 56 347 0.0 0.0 0.00 0.00 0.00 91 1012.4
20260510043821 56 347 0.0 0.0 0.00 0.00 0.00 90 1012.4
20260510043317 57 347 0.0 0.0 0.00 0.00 0.00 90 1012.0
20260510042815 57 347 0.0 0.0 0.00 0.00 0.00 89 1012.0
20260510042311 57 347 0.0 0.0 0.00 0.00 0.00 89 1012.4
20260510041809 57 347 0.0 0.0 0.00 0.00 0.00 89 1012.0
20260510041306 57 347 0.0 0.0 0.00 0.00 0.00 89 1012.4
20260510040803 57 347 0.0 0.0 0.00 0.00 0.00 88 1012.4
20260510040259 57 347 0.0 0.0 0.00 0.00 0.00 88 1012.0
20260510035755 58 347 0.0 0.0 0.00 0.00 0.00 87 1012.0
20260510035250 58 347 0.0 0.0 0.00 0.00 0.00 87 1012.0
20260510034741 57 347 0.0 0.0 0.00 0.00 0.00 88 1012.4
20260510034239 57 347 0.0 0.0 0.00 0.00 0.00 89 1012.0
20260510033735 57 347 0.0 0.0 0.00 0.00 0.00 89 1012.0
20260510033233 57 347 0.0 0.0 0.00 0.00 0.00 89 1012.0
20260510032729 58 347 0.0 0.0 0.00 0.00 0.00 88 1012.0
20260510032225 58 347 0.0 0.0 0.00 0.00 0.00 87 1011.7
20260510031720 58 347 0.0 0.0 0.00 0.00 0.00 87 1012.0
20260510031216 58 347 0.0 0.0 0.00 0.00 0.00 86 1012.0
20260510030715 59 347 0.0 0.0 0.00 0.00 0.00 86 1012.0
20260510030213 59 347 0.0 0.0 0.00 0.00 0.00 86 1011.7
20260510025711 59 347 0.0 0.0 0.00 0.00 0.00 85 1011.7
20260510025208 59 347 0.0 0.0 0.00 0.00 0.00 85 1011.7
20260510024705 59 346 0.0 0.0 0.00 0.00 0.00 84 1011.7
20260510024201 59 347 0.0 0.0 0.00 0.00 0.00 84 1011.7
20260510023657 60 347 0.0 0.0 0.00 0.00 0.00 84 1011.7
20260510023154 60 347 0.0 0.0 0.00 0.00 0.00 83 1011.3
20260510022650 60 347 0.0 0.0 0.00 0.00 0.00 83 1011.7
20260510022145 61 346 0.0 0.0 0.00 0.00 0.00 82 1011.3
20260510021640 61 346 0.0 0.0 0.00 0.00 0.00 81 1011.3
20260510021137 61 347 0.0 0.0 0.00 0.00 0.00 80 1011.3
20260510020632 61 347 0.0 0.0 0.00 0.00 0.00 80 1011.3
20260510020127 61 347 0.0 0.0 0.00 0.00 0.00 81 1011.0
20260510015624 61 347 0.0 0.0 0.00 0.00 0.00 81 1011.0
20260510015121 61 347 0.0 0.0 0.00 0.00 0.00 81 1010.7
20260510014616 61 347 0.0 0.0 0.00 0.00 0.00 82 1010.7
20260510014114 61 347 0.0 0.0 0.00 0.00 0.00 80 1011.0
20260510013613 61 347 0.0 0.0 0.00 0.00 0.00 81 1011.0
20260510013109 61 347 0.0 0.0 0.00 0.00 0.00 80 1010.7
20260510012608 62 347 0.0 0.0 0.00 0.00 0.00 80 1010.7
20260510012106 62 347 0.0 0.0 0.00 0.00 0.00 80 1010.7
20260510011605 62 347 0.0 0.0 0.00 0.00 0.00 79 1010.3
20260510011101 62 347 0.0 0.0 0.00 0.00 0.00 79 1010.3
20260510010557 63 347 0.0 0.0 0.00 0.00 0.00 78 1010.3
20260510010055 63 347 0.0 0.0 0.00 0.00 0.00 76 1010.3
20260510005550 63 347 0.0 0.0 0.00 0.00 0.00 76 1010.3
20260510005048 63 347 0.0 0.0 0.00 0.00 0.00 75 1010.0
20260510004546 64 347 0.0 0.0 0.00 0.00 0.00 74 1010.0
20260510004044 64 347 0.0 0.0 0.00 0.00 0.00 73 1010.0
20260510003540 65 347 0.0 0.9 0.00 0.00 0.00 72 1010.0
20260510003035 65 347 0.0 0.0 0.00 0.00 0.00 71 1010.0
20260510002531 66 347 0.0 0.0 0.00 0.00 0.00 69 1009.7
20260510002028 66 347 0.0 0.0 0.00 0.00 0.00 68 1010.0
20260510001525 67 347 0.0 0.0 0.00 0.00 0.00 69 1010.0
20260510001024 68 347 0.0 0.0 0.00 0.00 0.00 66 1010.0
20260510000519 68 347 0.0 0.0 0.00 0.00 0.00 64 1009.7
20260510000016 69 347 0.0 0.0 0.00 0.00 0.00 63 1010.0
20260509235513 69 34 0.0 0.0 0.00 0.00 0.00 63 1009.7
20260509235009 69 34 0.0 0.0 0.00 0.00 0.00 64 1009.3
20260509234506 70 33 0.0 0.0 0.00 0.00 0.00 62 1009.7
20260509234004 71 33 0.0 0.0 0.00 0.00 0.00 61 1009.7
20260509233500 71 1 0.0 0.0 0.00 0.00 0.00 60 1009.3
20260509232956 71 0 0.0 0.0 0.00 0.00 0.00 60 1009.7
20260509232455 71 0 0.0 0.0 0.00 0.00 0.00 59 1009.7
20260509231950 72 358 0.0 0.0 0.00 0.00 0.00 59 1009.3
20260509231447 72 359 0.0 0.0 0.00 0.00 0.00 59 1009.3
20260509230945 72 350 0.0 0.0 0.00 0.00 0.00 58 1009.7
20260509230442 72 29 0.0 0.9 0.00 0.00 0.00 59 1009.7
20260509225938 73 50 0.0 0.0 0.00 0.00 0.00 58 1009.7
20260509225434 73 32 0.0 0.0 0.00 0.00 0.00 58 1009.3
20260509224930 73 200 0.9 0.9 0.00 0.00 0.00 55 1009.7
20260509224425 73 37 0.0 0.0 0.00 0.00 0.00 55 1009.3
20260509223923 73 24 0.9 0.9 0.00 0.00 0.00 54 1009.3
20260509223420 73 18 0.0 0.0 0.00 0.00 0.00 56 1009.3
20260509222917 74 23 0.9 0.9 0.00 0.00 0.00 55 1009.3
20260509222412 74 13 0.0 0.9 0.00 0.00 0.00 54 1009.3
20260509221908 74 12 0.9 0.9 0.00 0.00 0.00 53 1009.7
20260509221405 74 316 0.0 0.0 0.00 0.00 0.00 54 1009.7
20260509220901 74 14 0.9 1.7 0.00 0.00 0.00 55 1009.7
20260509220357 74 40 0.0 0.9 0.00 0.00 0.00 53 1009.7
20260509215853 74 332 0.9 0.9 0.00 0.00 0.00 53 1009.3
20260509215349 74 55 2.6 4.3 0.00 0.00 0.00 52 1009.3
20260509214846 74 6 0.0 0.0 0.00 0.00 0.00 55 1009.7
20260509214344 74 1 0.0 0.0 0.00 0.00 0.00 53 1009.0
20260509213841 74 349 0.9 1.7 0.00 0.00 0.00 52 1009.3
20260509213336 73 10 0.0 0.9 0.00 0.00 0.00 53 1009.3
20260509212834 73 37 0.0 0.9 0.00 0.00 0.00 54 1009.3
20260509212331 73 329 0.9 1.7 0.00 0.00 0.00 53 1009.3
20260509211821 73 287 0.0 0.9 0.00 0.00 0.00 53 1009.3
20260509211317 74 89 0.9 1.7 0.00 0.00 0.00 54 1009.3
20260509210814 75 16 0.0 0.9 0.00 0.00 0.00 52 1009.3
20260509210312 75 322 0.9 0.9 0.00 0.00 0.00 52 1009.3
20260509205811 76 332 0.0 0.0 0.00 0.00 0.00 49 1009.3
20260509205307 77 11 1.7 2.6 0.00 0.00 0.00 47 1009.3
20260509204803 77 273 0.9 1.7 0.00 0.00 0.00 50 1009.0
20260509204259 77 20 0.9 1.7 0.00 0.00 0.00 48 1009.3
20260509203755 77 327 0.9 0.9 0.00 0.00 0.00 49 1009.0
20260509203253 78 293 0.9 0.9 0.00 0.00 0.00 50 1009.3
20260509202749 77 340 1.7 1.7 0.00 0.00 0.00 49 1009.3
20260509202245 77 338 0.9 1.7 0.00 0.00 0.00 48 1009.3
20260509201744 77 274 1.7 2.6 0.00 0.00 0.00 46 1009.0
20260509201241 77 336 0.9 0.9 0.00 0.00 0.00 50 1009.0
20260509200737 78 248 1.7 2.6 0.00 0.00 0.00 47 1009.0
20260509200233 78 3 0.0 0.0 0.00 0.00 0.00 49 1009.0
20260509195729 78 298 1.7 1.7 0.00 0.00 0.00 48 1009.0
20260509195224 78 282 1.7 2.6 0.00 0.00 0.00 48 1009.3
20260509194719 77 176 0.9 0.9 0.00 0.00 0.00 46 1009.3
20260509194215 75 348 1.7 1.7 0.00 0.00 0.00 55 1009.3
20260509193712 74 12 1.7 1.7 0.00 0.00 0.00 56 1009.7
20260509193212 73 344 0.9 0.9 0.00 0.00 0.00 53 1009.7
20260509192708 74 247 0.9 0.9 0.00 0.00 0.00 53 1009.7
20260509192203 75 200 0.9 1.7 0.00 0.00 0.00 52 1009.7
20260509191659 76 311 0.9 0.9 0.00 0.00 0.00 52 1009.7
20260509191155 78 74 0.9 0.9 0.00 0.00 0.00 48 1010.0
20260509190652 79 293 0.9 0.9 0.00 0.00 0.00 53 1009.7
20260509190149 77 325 0.9 0.9 0.00 0.00 0.00 52 1010.0
20260509185647 76 35 1.7 2.6 0.00 0.00 0.00 52 1010.0
20260509185143 75 282 0.9 1.7 0.00 0.00 0.00 54 1010.0
20260509184641 76 355 0.9 0.9 0.00 0.00 0.00 54 1010.0
20260509184137 76 342 0.9 0.9 0.00 0.00 0.00 53 1010.3
20260509183634 75 207 0.9 0.9 0.00 0.00 0.00 55 1010.3
20260509183129 72 339 2.6 4.3 0.00 0.00 0.00 59 1010.3
20260509182625 72 19 0.9 0.9 0.00 0.00 0.00 58 1010.7
20260509182122 73 322 1.7 2.6 0.00 0.00 0.00 55 1010.7
20260509181615 74 350 0.9 0.9 0.00 0.00 0.00 55 1010.7
20260509181113 74 359 0.9 0.9 0.00 0.00 0.00 57 1010.7
20260509180609 76 349 0.9 0.9 0.00 0.00 0.00 53 1010.7
20260509180106 75 359 1.7 1.7 0.00 0.00 0.00 55 1010.7
20260509175601 75 331 0.0 0.0 0.00 0.00 0.00 60 1010.7
20260509175058 74 144 2.6 5.2 0.00 0.00 0.00 56 1010.7
20260509174554 73 178 1.7 2.6 0.00 0.00 0.00 55 1011.0
20260509174049 73 302 0.9 1.7 0.00 0.00 0.00 61 1011.0
20260509173550 72 357 0.0 0.9 0.00 0.00 0.00 60 1010.7
20260509173046 74 337 0.9 0.9 0.00 0.00 0.00 61 1011.3
20260509172544 71 325 0.9 0.9 0.00 0.00 0.00 61 1011.3
20260509172039 71 359 1.7 1.7 0.00 0.00 0.00 61 1011.3
20260509171535 71 282 1.7 2.6 0.00 0.00 0.00 60 1011.3
20260509171032 71 11 0.0 0.9 0.00 0.00 0.00 61 1011.7
20260509170527 71 228 2.6 4.3 0.00 0.00 0.00 63 1011.3
20260509170023 70 359 1.7 1.7 0.00 0.00 0.00 64 1011.3
20260509165522 73 5 0.9 0.9 0.00 0.00 0.00 60 1011.3
20260509165018 73 203 0.9 1.7 0.00 0.00 0.00 59 1011.0
20260509164514 72 343 0.0 0.0 0.00 0.00 0.00 60 1011.0
20260509164009 71 9 0.9 0.9 0.00 0.00 0.00 62 1011.0
20260509163508 70 18 0.9 0.9 0.00 0.00 0.00 64 1011.7
20260509163002 69 302 0.9 1.7 0.00 0.00 0.00 65 1011.7
20260509162500 67 1 0.9 0.9 0.00 0.00 0.00 69 1011.7
20260509161956 66 12 0.0 0.0 0.00 0.00 0.00 69 1011.7
20260509161453 66 80 0.9 1.7 0.00 0.00 0.00 68 1011.7
20260509160947 67 330 1.7 1.7 0.00 0.00 0.00 67 1011.7
20260509160444 66 6 0.0 0.9 0.00 0.00 0.00 68 1011.7
20260509155944 66 301 0.9 0.9 0.00 0.00 0.00 71 1011.7
20260509155441 66 29 0.0 0.9 0.00 0.00 0.00 72 1012.0
20260509154937 66 38 0.0 0.9 0.00 0.00 0.00 69 1012.0
20260509154434 66 51 0.9 0.9 0.00 0.00 0.00 69 1011.7
20260509153931 65 323 0.9 0.9 0.00 0.00 0.00 71 1012.0
20260509153428 65 130 0.0 0.9 0.00 0.00 0.00 69 1012.4
20260509152925 65 200 0.9 0.9 0.00 0.00 0.00 68 1012.0
20260509152421 65 314 0.0 0.9 0.00 0.00 0.00 69 1012.4
20260509151918 66 149 0.9 0.9 0.00 0.00 0.00 67 1012.4
20260509151414 64 172 0.0 0.9 0.00 0.00 0.00 67 1012.4
20260509150912 63 8 0.0 0.9 0.00 0.00 0.00 70 1012.0
20260509150409 62 42 0.9 0.9 0.00 0.00 0.00 73 1012.4
20260509145908 62 334 0.0 0.9 0.00 0.00 0.00 71 1012.4
20260509145407 62 294 0.9 0.9 0.00 0.00 0.00 71 1012.7
20260509144903 62 30 0.0 0.0 0.00 0.00 0.00 70 1012.4
20260509144400 62 44 0.0 0.0 0.00 0.00 0.00 71 1012.4
20260509143857 62 341 0.0 0.0 0.00 0.00 0.00 70 1012.0
20260509143355 63 31 0.0 0.0 0.00 0.00 0.00 68 1012.0
20260509142851 62 335 2.6 4.3 0.00 0.00 0.00 69 1012.4
20260509142347 60 350 0.0 0.0 0.00 0.00 0.00 74 1012.0
20260509141843 59 25 0.0 0.0 0.00 0.00 0.00 74 1012.4
20260509141340 59 358 0.9 0.9 0.00 0.00 0.00 75 1012.7
20260509140836 58 37 0.9 0.9 0.00 0.00 0.00 74 1012.4
20260509140334 58 359 0.9 0.9 0.00 0.00 0.00 77 1012.7
20260509135832 57 316 0.9 1.7 0.00 0.00 0.00 76 1012.7
20260509135329 57 342 0.0 0.9 0.00 0.00 0.00 77 1012.7
20260509134826 57 32 0.9 0.9 0.00 0.00 0.00 76 1012.7
20260509134323 56 8 0.0 0.0 0.00 0.00 0.00 78 1012.7
20260509133820 56 1 0.0 0.9 0.00 0.00 0.00 76 1012.7
20260509133316 56 222 0.0 0.9 0.00 0.00 0.00 75 1012.7
20260509132815 55 2 0.9 0.9 0.00 0.00 0.00 76 1013.0
20260509132314 55 12 0.0 0.0 0.00 0.00 0.00 75 1012.7
20260509131810 55 18 0.0 0.0 0.00 0.00 0.00 76 1013.0
20260509131307 55 346 0.0 0.0 0.00 0.00 0.00 76 1013.0
20260509130803 55 32 0.9 0.9 0.00 0.00 0.00 78 1013.0
20260509130259 55 35 0.0 0.0 0.00 0.00 0.00 76 1013.0
20260509125756 55 38 0.0 0.0 0.00 0.00 0.00 79 1013.0
20260509125252 55 46 0.9 0.9 0.00 0.00 0.00 76 1013.4
20260509124749 54 34 0.9 0.9 0.00 0.00 0.00 77 1013.0
20260509124245 54 357 0.0 0.0 0.00 0.00 0.00 77 1013.0
20260509123744 54 331 0.0 0.0 0.00 0.00 0.00 78 1013.0
20260509123241 53 344 0.0 0.9 0.00 0.00 0.00 80 1013.0
20260509122736 53 355 0.0 0.0 0.00 0.00 0.00 80 1013.0
20260509122233 53 20 0.0 0.9 0.00 0.00 0.00 79 1013.4
20260509121730 53 359 0.0 0.0 0.00 0.00 0.00 79 1012.7
20260509121227 52 40 0.0 0.9 0.00 0.00 0.00 79 1013.0
20260509120726 52 31 0.9 0.9 0.00 0.00 0.00 81 1013.0
20260509120223 51 70 0.9 0.9 0.00 0.00 0.00 80 1013.0
20260509115721 51 31 0.0 0.0 0.00 0.00 0.00 81 1013.0
20260509115218 51 26 0.0 0.0 0.00 0.00 0.00 82 1013.0
20260509114716 51 22 0.0 0.0 0.00 0.00 0.00 81 1013.0
20260509114214 50 17 0.0 0.0 0.00 0.00 0.00 82 1013.0
20260509113713 50 17 0.0 0.0 0.00 0.00 0.00 83 1013.4
20260509113209 50 17 0.0 0.0 0.00 0.00 0.00 84 1013.0
20260509112706 50 17 0.0 0.0 0.00 0.00 0.00 84 1013.0
20260509112203 49 17 0.0 0.0 0.00 0.00 0.00 84 1013.0
20260509111700 49 17 0.0 0.0 0.00 0.00 0.00 84 1013.0
20260509111157 49 17 0.0 0.0 0.00 0.00 0.00 84 1013.0
20260509110654 48 15 0.0 0.0 0.00 0.00 0.00 84 1013.0
20260509110151 48 16 0.0 0.0 0.00 0.00 0.00 85 1013.0
20260509105649 48 16 0.0 0.0 0.00 0.00 0.00 85 1013.0
20260509105146 48 16 0.0 0.0 0.00 0.00 0.00 85 1013.0
20260509104643 48 16 0.0 0.0 0.00 0.00 0.00 84 1012.7
20260509104140 48 16 0.0 0.0 0.00 0.00 0.00 85 1013.0
20260509103638 48 8 0.0 0.0 0.00 0.00 0.00 84 1013.0
20260509103136 48 7 0.0 0.0 0.00 0.00 0.00 83 1013.0
20260509102633 48 25 0.0 0.0 0.00 0.00 0.00 83 1013.0
20260509102130 48 25 0.0 0.0 0.00 0.00 0.00 83 1013.0
20260509101626 48 25 0.0 0.0 0.00 0.00 0.00 83 1013.0
20260509101123 49 25 0.0 0.0 0.00 0.00 0.00 84 1013.0
20260509100620 49 25 0.0 0.0 0.00 0.00 0.00 83 1013.0
20260509100117 49 25 0.0 0.0 0.00 0.00 0.00 82 1012.7
20260509095614 49 25 0.0 0.0 0.00 0.00 0.00 80 1013.0
20260509095111 49 25 0.0 0.0 0.00 0.00 0.00 78 1012.7
20260509094607 49 25 0.0 0.0 0.00 0.00 0.00 79 1012.7
20260509094105 49 25 0.0 0.0 0.00 0.00 0.00 79 1012.7
20260509093603 49 25 0.0 0.0 0.00 0.00 0.00 79 1012.7
20260509093100 50 25 0.0 0.0 0.00 0.00 0.00 81 1012.7
20260509092558 50 25 0.0 0.0 0.00 0.00 0.00 81 1012.7
20260509092056 50 25 0.0 0.0 0.00 0.00 0.00 80 1012.7
20260509091554 50 25 0.0 0.0 0.00 0.00 0.00 80 1012.7
20260509091050 50 25 0.0 0.0 0.00 0.00 0.00 80 1013.0
20260509090547 49 25 0.0 0.0 0.00 0.00 0.00 75 1013.0
20260509090045 49 25 0.0 0.0 0.00 0.00 0.00 75 1012.7
20260509085542 49 25 0.0 0.0 0.00 0.00 0.00 77 1013.0
20260509085038 49 25 0.0 0.0 0.00 0.00 0.00 77 1012.7
20260509084535 50 25 0.0 0.0 0.00 0.00 0.00 77 1013.0
20260509084032 50 25 0.0 0.0 0.00 0.00 0.00 77 1013.0
20260509083530 50 25 0.0 0.0 0.00 0.00 0.00 75 1013.0
20260509083026 50 25 0.0 0.0 0.00 0.00 0.00 74 1013.0
20260509082524 50 25 0.0 0.0 0.00 0.00 0.00 74 1012.7
20260509082021 50 25 0.0 0.0 0.00 0.00 0.00 74 1013.0